FW1299 Weather Reports


Display with metric or nautical units.
time (UTC)temp
F
wind
direction
speed
MPH
gust
MPH
rain 1hr
in
rain 24hr
in
rain mn
in
humidity
%
barometer
mb
20260906120215 68 85 0.0 1.0 0.00 0.00 0.00 92 1014.9
20260906115213 66 79 0.0 0.0 0.00 0.00 0.00 95 1014.8
20260906114212 65 79 0.0 0.0 0.00 0.00 0.00 96 1014.8
20260906113211 64 79 0.0 0.0 0.00 0.00 0.00 99 1014.7
20260906111212 61 79 0.0 0.0 0.00 0.00 0.00 100 1014.6
20260906105212 59 79 0.0 0.0 0.00 0.00 0.00 100 1014.2
20260906104214 59 79 0.0 0.0 0.00 0.00 0.00 99 1014.1
20260906103211 59 79 0.0 0.0 0.00 0.00 0.00 99 1013.9
20260906102210 59 79 0.0 0.0 0.00 0.00 0.00 99 1013.8
20260906100205 60 79 0.0 0.0 0.00 0.00 0.00 100 1013.5
20260906095204 60 79 0.0 0.0 0.00 0.00 0.00 100 1013.4
20260906094203 60 79 0.0 0.0 0.00 0.00 0.00 99 1013.4
20260906092203 60 79 0.0 0.0 0.00 0.00 0.00 99 1013.1
20260906091203 60 79 0.0 0.0 0.00 0.00 0.00 99 1013.1
20260906090203 60 79 0.0 0.0 0.00 0.00 0.00 100 1013.0
20260906085158 60 79 0.0 0.0 0.00 0.00 0.00 99 1013.0
20260906084156 60 79 0.0 0.0 0.00 0.00 0.00 99 1012.9
20260906083155 60 79 0.0 0.0 0.00 0.00 0.00 99 1012.8
20260906082156 61 79 0.0 0.0 0.00 0.00 0.00 99 1012.7
20260906080149 61 79 0.0 0.0 0.00 0.00 0.00 99 1012.6
20260906075150 61 79 0.0 0.0 0.00 0.00 0.00 99 1012.3
20260906074149 61 79 0.0 0.0 0.00 0.00 0.00 99 1012.3
20260906072147 61 79 0.0 0.0 0.00 0.00 0.00 99 1012.3
20260906071147 61 79 0.0 0.0 0.00 0.00 0.00 99 1012.4
20260906070147 60 79 0.0 0.0 0.00 0.00 0.00 99 1012.4
20260906064145 60 79 0.0 0.0 0.00 0.00 0.00 99 1012.5
20260906063146 60 79 0.0 0.0 0.00 0.00 0.00 99 1012.5
20260906062145 60 79 0.0 0.0 0.00 0.00 0.00 98 1012.4
20260906060146 61 79 0.0 0.0 0.00 0.00 0.00 98 1012.8
20260906055146 61 79 0.0 0.0 0.00 0.00 0.00 98 1012.8
20260906053146 61 79 0.0 0.0 0.00 0.00 0.00 97 1012.8
20260906052143 62 79 0.0 0.0 0.00 0.00 0.00 97 1012.8
20260906051143 62 79 0.0 0.0 0.00 0.00 0.00 97 1012.8
20260906050142 62 79 0.0 0.0 0.00 0.00 0.00 97 1012.7
20260906045143 62 79 0.0 0.0 0.00 0.00 0.00 97 1012.7
20260906044143 63 79 0.0 0.0 0.00 0.00 0.00 97 1012.8
20260906042143 64 79 0.0 0.0 0.00 0.00 0.00 97 1012.7
20260906035142 64 79 0.0 0.0 0.00 0.00 0.00 95 1012.5
20260906034142 64 79 0.0 0.0 0.00 0.00 0.00 95 1012.6
20260906033141 65 79 0.0 0.0 0.00 0.00 0.00 95 1012.5
20260906032143 65 79 0.0 0.0 0.00 0.00 0.00 96 1012.5
20260906031141 65 79 0.0 0.0 0.00 0.00 0.00 96 1012.4
20260906030141 65 79 0.0 0.0 0.00 0.00 0.00 96 1012.3
20260906025141 64 79 0.0 0.0 0.00 0.00 0.00 96 1012.4
20260906024139 64 79 0.0 0.0 0.00 0.00 0.00 96 1012.3
20260906022138 64 79 0.0 0.0 0.00 0.00 0.00 95 1012.3
20260906021136 65 79 0.0 0.0 0.00 0.00 0.00 94 1012.1
20260906020135 65 79 0.0 0.0 0.00 0.00 0.00 94 1012.4
20260906015132 65 79 0.0 0.0 0.00 0.00 0.00 94 1012.3
20260906014131 65 79 0.0 0.0 0.00 0.00 0.00 93 1012.2
20260906012133 65 79 0.0 0.0 0.00 0.00 0.00 92 1012.0
20260906011131 66 79 0.0 0.0 0.00 0.00 0.00 91 1011.9
20260906010131 66 79 0.0 0.0 0.00 0.00 0.00 91 1012.0
20260906005126 67 79 0.0 0.0 0.00 0.00 0.00 90 1011.8
20260906004127 67 79 0.0 0.0 0.00 0.00 0.00 90 1011.8
20260906003125 68 79 0.0 0.0 0.00 0.00 0.00 88 1011.4
20260906001125 69 79 0.0 0.0 0.00 0.00 0.00 85 1011.3
20260906000126 70 79 0.0 0.0 0.00 0.00 0.00 85 1011.1
20260905235126 71 79 0.0 0.0 0.00 0.00 0.00 81 1010.9
20260905234126 72 79 0.0 0.0 0.00 0.00 0.00 77 1010.9
20260905233126 73 79 0.0 0.0 0.00 0.00 0.00 75 1010.8
20260905232120 74 79 0.0 0.0 0.00 0.00 0.00 73 1010.8
20260905231119 75 79 0.0 1.0 0.00 0.00 0.00 72 1010.8
20260905230118 76 120 0.0 0.0 0.00 0.00 0.00 69 1010.7
20260905225121 78 120 0.0 1.0 0.00 0.00 0.00 68 1010.8
20260905224118 79 63 0.0 0.0 0.00 0.00 0.00 64 1010.7
20260905223119 81 69 0.0 1.0 0.00 0.00 0.00 62 1010.6
20260905222120 82 82 0.0 1.0 0.00 0.00 0.00 62 1010.8
20260905221120 82 81 0.0 4.0 0.00 0.00 0.00 60 1010.6
20260905220121 82 115 0.0 1.0 0.00 0.00 0.00 59 1010.5
20260905214120 83 254 0.0 4.0 0.00 0.00 0.00 59 1010.2
20260905213119 82 201 0.0 1.0 0.00 0.00 0.00 59 1010.3
20260905212120 83 63 0.0 3.0 0.00 0.00 0.00 61 1010.4
20260905211119 82 190 0.0 3.0 0.00 0.00 0.00 60 1010.3
20260905210121 83 218 0.0 3.0 0.00 0.00 0.00 59 1010.3
20260905204118 82 88 0.0 2.0 0.00 0.00 0.00 61 1010.3
20260905202118 82 76 0.0 1.0 0.00 0.00 0.00 65 1010.5
20260905201116 83 84 0.0 3.0 0.00 0.00 0.00 61 1010.4
20260905200119 83 169 1.0 4.0 0.00 0.00 0.00 64 1010.5
20260905195115 84 222 1.0 4.0 0.00 0.00 0.00 59 1010.4
20260905193116 83 304 0.0 1.0 0.00 0.00 0.00 66 1010.5
20260905192114 82 151 0.0 3.0 0.00 0.00 0.00 64 1010.6
20260905191115 83 244 0.0 4.0 0.00 0.00 0.00 61 1010.5
20260905185114 81 75 0.0 1.0 0.00 0.00 0.00 61 1010.6
20260905184116 82 53 0.0 3.0 0.00 0.00 0.00 67 1010.7
20260905183115 83 59 0.0 5.0 0.00 0.00 0.00 63 1010.7
20260905182114 83 63 0.0 2.0 0.00 0.00 0.00 61 1010.9
20260905181114 81 120 0.0 2.0 0.00 0.00 0.00 63 1010.9
20260905180114 79 122 0.0 4.0 0.00 0.00 0.00 68 1011.0
20260905175113 80 205 0.0 6.0 0.00 0.00 0.00 64 1011.0
20260905173113 82 95 0.0 2.0 0.00 0.00 0.00 65 1010.9
20260905172110 80 240 0.0 2.0 0.00 0.00 0.00 67 1011.0
20260905171110 80 37 1.0 6.0 0.00 0.00 0.00 66 1010.9
20260905170109 79 97 0.0 1.0 0.00 0.00 0.00 68 1011.2
20260905165107 79 70 0.0 5.0 0.00 0.00 0.00 67 1011.2
20260905164106 81 92 0.0 3.0 0.00 0.00 0.00 67 1011.2
20260905163104 81 193 0.0 3.0 0.00 0.00 0.00 65 1011.3
20260905162106 81 215 0.0 3.0 0.00 0.00 0.00 66 1011.3
20260905161106 80 123 0.0 3.0 0.00 0.00 0.00 68 1011.4
20260905160105 80 178 1.0 7.0 0.00 0.00 0.00 68 1011.5
20260905155105 80 214 1.0 6.0 0.00 0.00 0.00 70 1011.5
20260905154105 80 77 1.0 4.0 0.00 0.00 0.00 68 1011.4
20260905153105 79 83 1.0 6.0 0.00 0.00 0.00 69 1011.2
20260905152105 79 131 1.0 4.0 0.00 0.00 0.00 70 1011.2
20260905151105 78 101 1.0 6.0 0.00 0.00 0.00 69 1011.2
20260905145104 77 290 0.0 4.0 0.00 0.00 0.00 73 1011.4
20260905144106 78 106 1.0 5.0 0.00 0.00 0.00 69 1011.3
20260905143104 78 295 1.0 7.0 0.00 0.00 0.00 71 1011.3
20260905142106 78 108 1.0 4.0 0.00 0.00 0.00 71 1011.2
20260905141102 78 52 0.0 4.0 0.00 0.00 0.00 71 1011.0
20260905140103 77 81 0.0 7.0 0.00 0.00 0.00 73 1011.0
20260905135104 77 198 1.0 5.0 0.00 0.00 0.00 75 1011.0
20260905134103 77 278 0.0 3.0 0.00 0.00 0.00 74 1010.9
20260905133101 77 127 0.0 2.0 0.00 0.00 0.00 76 1010.8
20260905132102 76 207 0.0 5.0 0.00 0.00 0.00 76 1010.9
20260905131101 75 155 0.0 2.0 0.00 0.00 0.00 78 1011.0
20260905125100 74 148 1.0 4.0 0.00 0.00 0.00 79 1011.6
20260905124100 74 155 1.0 5.0 0.00 0.00 0.00 79 1011.7
20260905123101 73 295 0.0 5.0 0.00 0.00 0.00 79 1011.7
20260905122059 73 153 0.0 2.0 0.00 0.00 0.00 80 1011.5
20260905121057 72 124 0.0 5.0 0.00 0.00 0.00 81 1011.7